Regional Weather Roundup
Issued by NWS Albany, NY

Home | Current Version | Previous Version | Text Only | Print | Product List | Glossary On
Versions: 1 2 3 4 5 6 7 8 9 10 11 12 13 14 15 16 17 18 19 20 21 22 23 24 25 26 27 28
000
ASUS41 KALY 271810
RWRALY

NEW YORK STATE HOURLY WEATHER ROUNDUP
NATIONAL WEATHER SERVICE ALBANY NY
200 PM EDT THU APR 27 2017

NOTE: "FAIR" INDICATES FEW OR NO CLOUDS BELOW 12,000 FEET WITH NO
SIGNIFICANT WEATHER AND/OR NO OBSTRUCTIONS TO VISIBILITY.

NYZ032-033-038>043-046>054-057>066-NYZ062>081-082-084-271900-
EAST


CITY           SKY/WX    TMP DP  RH WIND       PRES   REMARKS
ALBANY         CLOUDY    69  56  62 S10       29.87F
GLENS FALLS    SUNNY     71  56  58 VRB6      29.84F
POUGHKEEPSIE   CLOUDY    67  57  70 SE3       29.87F
NEWBURGH       CLOUDY    66  61  82 VRB7      29.90F
MONTGOMERY     CLOUDY    68  59  73 SW7       29.87F
WHITE PLAINS   CLOUDY    66  57  72 S6        29.90F
ISLIP          CLOUDY    65  56  72 S8        29.92S
NEW YORK CITY  CLOUDY    68  57  68 S8        29.90S
CENTRAL PARK   CLOUDY    68  57  68 S7        29.93R
$$

NYZ005>009-017-018-044>046-055-056-271900-
CENTRAL


CITY           SKY/WX    TMP DP  RH WIND       PRES   REMARKS
FULTON         MOSUNNY   78  59  51 SE10G18   29.69F
SYRACUSE       CLOUDY    78  60  53 SE13      29.71F
ROME           MOSUNNY   77  60  55 SE12      29.77F
ELMIRA         PTSUNNY   75  59  57 VRB7      29.73F
BINGHAMTON     CLOUDY    68  58  70 S12       29.80F
MONTICELLO     CLOUDY    64  59  82 S7        29.89F
$$

NYZ026>034-041>043-087-271900-
NORTH


CITY           SKY/WX    TMP DP  RH WIND       PRES   REMARKS
WATERTOWN      SUNNY     81  57  43 VRB5      29.69F
FORT DRUM      NOT AVBL
OGDENSBURG     FAIR      83  61  47 NE10      29.71F
MASSENA        SUNNY     74  59  59 E12       29.76F
SARANAC LAKE   SUNNY     76  56  49 SW10      29.79F
PLATTSBURGH    SUNNY     73  55  53 SE13      29.80F
$$

NYZ001>004-010>016-019>021-085-271900-
WEST


CITY           SKY/WX    TMP DP  RH WIND       PRES   REMARKS
NIAGARA FALLS  MOSUNNY   85  59  41 S10       29.57F
BUFFALO        PTSUNNY   85  58  39 SE10G20   29.59F
DUNKIRK        CLOUDY    83  56  39 S16G23    29.57F
JAMESTOWN      SUNNY     79  55  44 SE16G22   29.64F
WELLSVILLE     CLOUDY    70  57  63 SE16G23   29.74F
ROCHESTER      PTSUNNY   83  63  50 SE14      29.63F
PENN YAN       PTSUNNY   77  60  55 SE14      29.70F
$$

             KEY
       WCI = WIND CHILL INDEX
       VSB = VISIBILITY
       HX  = HEAT INDEX
$$




USA.gov is the U.S. government's official web portal to all federal, state and local government web resources and services.